Latest Weather Observations for Thredbo Top Station

IDN60801

Issued at 10:35 pm EDT Tuesday 21 October 2014 (issued every 30 minutes, with the page automatically refreshed every 10 minutes)

About weather observations | Map of weather stations | Latest weather observations for NSW | Other Formats
Station Details ID: 071032 Name: THREDBO AWS Lat: -36.49 Lon: 148.29 Height: 1957.0 m
Data from the previous 72 hours. | See also: Recent months at Thredbo Top Station
Date/Time
EDT
Temp
°C
App
Temp
°C
Dew
Point
Rel
Hum
%
Delta-T
°C
Wind Press
QNH
hPa
Press
MSL
hPa
Rain
since 9 am
mm
Dir
 
Spd
km/h
Gust
km/h
Spd
kts
Gust
kts
21/10:30pm 7.9 4.6 2.6 69 2.4 SSW 9 11 5 6 1029.1 1030.7 0.0
21/10:00pm 7.4 2.3 6.0 91 0.7 WSW 22 28 12 15 1029.3 1030.9 0.0
21/09:30pm 7.3 2.2 6.1 92 0.6 W 22 28 12 15 1029.2 1030.8 0.0
21/09:00pm 7.1 2.9 5.6 90 0.7 W 17 22 9 12 1029.2 1030.8 0.0
21/08:30pm 6.7 2.5 5.5 92 0.6 W 17 19 9 10 1029.1 1030.7 0.0
21/08:00pm 7.1 3.5 5.1 87 1.0 W 13 15 7 8 1028.6 1030.2 0.0
21/07:30pm 8.6 5.5 5.5 81 1.5 WSW 11 13 6 7 1028.5 1030.1 0.0
21/07:00pm 10.0 7.4 6.2 77 1.9 SSW 9 11 5 6 1028.3 1029.9 0.0
21/06:30pm 11.1 9.1 6.3 72 2.4 SW 6 11 3 6 1027.9 1029.5 0.0
21/06:00pm 12.3 10.2 6.6 68 2.9 SSW 7 11 4 6 1027.7 1029.3 0.0
21/05:30pm 12.1 9.1 5.9 66 3.1 S 11 19 6 10 1027.7 1029.3 0.0
21/05:00pm 12.7 9.7 5.8 63 3.5 SSE 11 17 6 9 1027.6 1029.1 0.0
21/04:30pm 13.2 9.8 6.1 62 3.6 S 13 19 7 10 1027.6 1029.1 0.0
21/04:00pm 13.6 10.4 5.3 57 4.2 S 11 19 6 10 1027.8 1029.4 0.0
21/03:30pm 13.2 10.1 5.6 60 3.9 S 11 20 6 11 1027.9 1029.5 0.0
21/03:00pm 12.9 9.4 5.6 61 3.7 S 13 20 7 11 1028.3 1029.9 0.0
21/02:30pm 12.2 9.6 6.3 67 3.0 SE 9 20 5 11 1028.5 1030.1 0.0
21/02:00pm 12.7 10.1 6.1 64 3.4 SE 9 19 5 10 1028.8 1030.4 0.0
21/01:30pm 12.3 9.7 6.1 66 3.2 E 9 19 5 10 1029.1 1030.7 0.0
21/01:00pm 12.3 9.0 6.4 67 3.0 SE 13 22 7 12 1029.4 1031.0 0.0
21/12:30pm 12.1 10.0 6.6 69 2.8 ESE 7 11 4 6 1029.6 1031.3 0.0
21/12:00pm 13.3 11.6 8.2 71 2.7 ESE 7 15 4 8 1029.9 1031.5 0.0
21/11:30am 12.7 10.3 7.0 68 2.9 ESE 9 15 5 8 1030.1 1031.7 0.0
21/11:00am 11.6 9.7 6.9 73 2.4 E 6 11 3 6 1030.3 1032.0 0.0
21/10:30am 11.9 10.1 5.3 64 3.3 E 4 9 2 5 1030.4 1032.1 0.0
21/10:00am 11.1 8.3 1.9 53 4.2 ESE 6 9 3 5 1030.7 1032.3 0.0
21/09:30am 11.6 9.1 1.5 50 4.6 E 4 7 2 4 1030.6 1032.2 0.0
21/09:00am 11.2 8.6 0.9 49 4.6 E 4 6 2 3 1030.6 1032.2 0.2
21/08:30am 10.6 7.7 -1.4 43 5.1 ESE 4 6 2 3 1030.4 1032.1 0.2
21/08:00am 10.4 6.9 -10.4 22 7.1 N 2 4 1 2 1030.2 1031.9 0.2
21/07:30am 9.3 4.1 -11.3 22 6.9 SSW 11 13 6 7 1029.9 1031.5 0.2
21/07:00am 8.1 2.1 -11.8 23 6.4 WSW 15 19 8 10 1029.8 1031.4 0.2
21/06:30am 5.0 0.0 -14.4 23 5.9 SW 9 13 5 7 1029.6 1031.3 0.2
21/06:00am 2.6 -1.3 -10.6 37 4.2 W 4 7 2 4 1029.3 1030.9 0.2
21/05:30am 3.2 -1.1 -9.4 39 4.2 WNW 7 9 4 5 1029.3 1030.9 0.2
21/05:00am 3.8 -0.1 -6.5 47 3.6 W 6 11 3 6 1029.3 1030.9 0.2
21/04:30am 2.7 -0.3 -4.7 58 2.7 N 2 7 1 4 1029.2 1030.8 0.2
21/04:00am 5.4 2.2 -3.1 54 3.3 WSW 4 15 2 8 1029.2 1030.8 0.2
21/03:30am 5.5 1.1 0.5 70 2.1 WSW 13 17 7 9 1029.4 1031.0 0.2
21/03:00am 5.0 1.6 1.8 80 1.4 WSW 9 15 5 8 1029.6 1031.3 0.2
21/02:30am 5.2 2.9 2.6 83 1.2 SSW 4 9 2 5 1029.8 1031.4 0.0
21/02:00am 5.6 2.0 5.0 96 0.3 WSW 13 17 7 9 1030.1 1031.7 0.0
21/01:30am 6.4 3.5 6.3 99 0.0 SW 11 15 6 8 1030.2 1031.9 0.0
21/01:00am 4.5 2.9 4.4 99 0.0 WSW 2 6 1 3 1030.3 1032.0 0.0
21/12:30am 1.4 -0.8 1.3 99 0.0 SSE 2 9 1 5 1030.6 1032.2 0.0
21/12:00am 1.2 -1.4 1.1 99 0.0 SE 4 6 2 3 1030.7 1032.3 0.0
 
Date/Time
EDT
Temp
°C
App
Temp
°C
Dew
Point
Rel
Hum
%
Delta-T
°C
Wind Press
QNH
hPa
Press
MSL
hPa
Rain
since 9 am
mm
Dir
 
Spd
km/h
Gust
km/h
Spd
kts
Gust
kts
20/11:30pm 1.4 -0.8 1.3 99 0.0 SSE 2 4 1 2 1030.8 1032.4 0.0
20/11:00pm 1.2 -1.4 1.1 99 0.0 SW 4 6 2 3 1030.7 1032.3 0.0
20/10:30pm 2.1 -0.3 2.0 99 0.0 S 4 6 2 3 1030.7 1032.3 0.0
20/10:00pm 2.7 -2.7 2.6 99 0.0 NW 20 30 11 16 1030.7 1032.3 0.0
20/09:30pm 3.0 -3.1 2.9 99 0.0 NW 24 30 13 16 1030.8 1032.4 0.0
20/09:00pm 3.2 0.6 3.1 99 0.0 NNE 6 11 3 6 1030.8 1032.4 0.0
20/08:30pm 3.3 1.5 3.2 99 0.0 ESE 2 6 1 3 1030.3 1032.0 0.0
20/08:00pm 3.4 1.6 3.3 99 0.0 ESE 2 7 1 4 1030.0 1031.6 0.0
20/07:30pm 3.4 0.8 3.3 99 0.0 NNE 6 11 3 6 1029.9 1031.5 0.0
20/07:00pm 3.4 0.2 3.3 99 0.0 NNE 9 11 5 6 1029.8 1031.4 0.0
20/06:30pm 4.3 2.3 4.2 99 0.0 N 4 6 2 3 1029.4 1031.0 0.0
20/06:00pm 4.9 2.4 3.9 93 0.5 ENE 6 9 3 5 1029.4 1031.0 0.0
20/05:30pm 5.7 3.3 4.3 91 0.7 ENE 6 7 3 4 1029.4 1031.0 0.0
20/05:00pm 6.5 4.1 4.2 85 1.1 ENE 6 11 3 6 1029.3 1030.9 0.0
20/04:30pm 7.6 4.8 5.1 84 1.2 E 9 13 5 7 1029.1 1030.7 0.0
20/04:00pm 8.3 5.5 5.1 80 1.5 E 9 13 5 7 1028.8 1030.4 0.0
20/03:30pm 9.0 6.3 5.6 79 1.7 E 9 15 5 8 1028.8 1030.4 0.0
20/03:00pm 9.5 7.2 5.5 76 2.0 ENE 7 13 4 7 1028.7 1030.3 0.0
20/02:30pm 10.7 7.8 4.8 67 2.9 NW 9 20 5 11 1028.8 1030.4 0.0
20/02:00pm 10.4 8.3 6.0 74 2.2 ENE 6 11 3 6 1029.2 1030.8 0.0
20/01:30pm 10.0 7.4 4.2 67 2.8 E 7 17 4 9 1029.3 1030.9 0.0
20/01:00pm 13.9 7.8 -3.8 29 7.3 W 19 28 10 15 1029.3 1030.9 0.0
20/12:30pm 14.0 8.1 -2.0 33 7.0 W 19 33 10 18 1029.5 1031.1 0.0
20/12:00pm 13.7 7.5 -3.1 31 7.1 W 20 35 11 19 1029.8 1031.4 0.0
20/11:30am 14.6 8.7 -1.1 34 7.0 W 20 32 11 17 1029.9 1031.5 0.0
20/11:00am 14.0 8.0 -1.6 34 6.8 W 20 32 11 17 1029.9 1031.5 0.0
20/10:30am 13.5 6.6 -2.4 33 6.8 W 24 35 13 19 1030.1 1031.7 0.0
20/10:00am 13.3 6.4 -3.0 32 6.8 W 24 33 13 18 1030.1 1031.7 0.0
20/09:30am 12.6 5.3 -2.8 34 6.5 W 26 35 14 19 1029.8 1031.4 0.0
20/09:00am 12.1 4.4 -3.3 34 6.3 W 28 43 15 23 1029.4 1031.0 0.0
20/08:30am 11.6 4.4 -2.2 38 5.8 W 26 39 14 21 1029.0 1030.6 0.0
20/08:00am 10.3 4.0 -0.8 46 4.8 W 22 30 12 16 1028.7 1030.3 0.0
20/07:30am 9.6 2.9 -1.1 47 4.6 W 24 32 13 17 1028.4 1030.0 0.0
20/07:00am 9.0 1.9 -1.1 49 4.2 W 26 35 14 19 1028.0 1029.6 0.0
20/06:30am 8.7 1.6 -1.1 50 4.1 W 26 39 14 21 1027.8 1029.4 0.0
20/06:00am 8.2 0.9 0.0 56 3.5 W 28 39 15 21 1027.5 1029.0 0.0
20/05:30am 8.0 0.8 0.5 59 3.3 W 28 41 15 22 1027.1 1028.7 0.0
20/05:00am 8.1 1.7 0.8 60 3.2 W 24 33 13 18 1026.9 1028.4 0.0
20/04:30am 7.9 1.8 0.6 60 3.2 W 22 32 12 17 1026.6 1028.1 0.0
20/04:00am 8.2 1.0 0.7 59 3.3 W 28 41 15 22 1026.1 1027.6 0.0
20/03:30am 8.6 -0.1 -0.2 54 3.8 W 35 48 19 26 1025.6 1027.1 0.0
20/03:03am 9.0 0.3 -0.6 51 4.1 W 35 54 19 29 1025.4 1026.9 0.0
20/03:00am 9.1 -0.4 -0.8 50 4.2 W 39 54 21 29 1025.4 1026.9 0.0
20/02:30am 9.6 0.1 -1.1 47 4.6 W 39 56 21 30 1025.5 1027.0 0.0
20/02:00am 9.6 -0.3 -0.9 48 4.5 W 41 56 22 30 1025.5 1027.0 0.0
20/01:51am 9.8 1.0 -1.0 47 4.6 W 35 56 19 30 1025.8 1027.3 0.0
20/01:30am 9.7 1.5 -0.8 48 4.5 W 32 46 17 25 1026.1 1027.6 0.0
20/01:00am 9.6 1.2 -0.9 48 4.5 W 33 48 18 26 1026.4 1028.0 0.0
20/12:33am 9.5 1.1 -0.7 49 4.4 W 33 52 18 28 1026.6 1028.1 0.0
20/12:30am 9.7 1.0 -0.8 48 4.5 W 35 52 19 28 1026.7 1028.2 0.0
20/12:11am 9.8 0.7 -0.7 48 4.5 W 37 57 20 31 1026.8 1028.3 0.0
20/12:00am 9.4 0.7 -0.2 51 4.1 W 35 46 19 25 1026.9 1028.4 0.0
 
Date/Time
EDT
Temp
°C
App
Temp
°C
Dew
Point
Rel
Hum
%
Delta-T
°C
Wind Press
QNH
hPa
Press
MSL
hPa
Rain
since 9 am
mm
Dir
 
Spd
km/h
Gust
km/h
Spd
kts
Gust
kts
19/11:30pm 9.2 0.6 -0.1 52 4.0 WNW 35 46 19 25 1027.1 1028.7 0.0
19/11:00pm 9.2 0.2 0.1 53 3.9 WNW 37 48 20 26 1027.1 1028.7 0.0
19/10:30pm 9.3 0.7 0.0 52 4.0 W 35 54 19 29 1027.0 1028.6 0.0
19/10:23pm 9.8 1.6 -0.7 48 4.5 W 32 54 17 29 1027.1 1028.7 0.0
19/10:00pm 9.6 0.9 -0.6 49 4.4 WNW 35 46 19 25 1027.1 1028.7 0.0
19/09:30pm 9.0 1.3 0.2 54 3.8 W 30 43 16 23 1027.6 1029.1 0.0
19/09:20pm 8.4 0.8 0.4 57 3.5 W 30 48 16 26 1027.6 1029.1 0.0
19/09:00pm 9.0 1.0 0.5 55 3.7 W 32 44 17 24 1027.7 1029.3 0.0
19/08:30pm 9.1 0.6 0.6 55 3.7 W 35 50 19 27 1027.2 1028.8 0.0
19/08:19pm 8.8 -0.1 0.5 56 3.6 W 37 56 20 30 1027.2 1028.8 0.0
19/08:00pm 8.9 -0.4 0.4 55 3.7 WNW 39 50 21 27 1026.9 1028.4 0.0
19/07:30pm 8.3 -1.1 0.1 56 3.5 W 39 48 21 26 1026.9 1028.4 0.0
19/07:00pm 8.5 -1.7 0.7 58 3.4 WNW 44 52 24 28 1026.6 1028.1 0.0
19/06:30pm 9.0 -2.2 -0.9 50 4.2 WNW 48 59 26 32 1026.3 1027.8 0.0
19/06:00pm 9.6 -1.4 -2.0 44 4.8 WNW 46 56 25 30 1025.5 1027.0 0.0
19/05:30pm 10.4 -0.4 -4.8 34 6.0 WNW 43 54 23 29 1025.5 1027.0 0.0
19/05:00pm 11.5 0.8 -4.2 33 6.3 WNW 43 50 23 27 1025.6 1027.1 0.0
19/04:30pm 12.0 3.2 -4.2 32 6.6 WNW 33 46 18 25 1025.5 1027.0 0.0
19/04:00pm 11.8 1.1 -4.3 32 6.5 WNW 43 52 23 28 1025.6 1027.1 0.0
19/03:30pm 12.2 3.2 -2.8 35 6.3 W 35 44 19 24 1025.8 1027.3 0.0
19/03:00pm 13.5 3.8 -2.0 34 6.7 W 39 50 21 27 1025.8 1027.3 0.0
19/02:30pm 12.5 2.7 -3.3 33 6.6 W 39 50 21 27 1026.1 1027.6 0.0
19/02:00pm 13.5 3.8 -2.0 34 6.7 W 39 54 21 29 1026.4 1028.0 0.0
19/01:30pm 12.3 3.3 -2.7 35 6.3 W 35 43 19 23 1026.9 1028.4 0.0
19/01:00pm 12.2 3.3 -1.7 38 5.9 W 35 44 19 24 1027.2 1028.8 0.0
19/12:30pm 12.8 3.6 -1.1 38 6.1 W 37 50 20 27 1027.1 1028.7 0.0
19/12:00pm 11.6 2.3 -1.9 39 5.7 W 37 44 20 24 1027.2 1028.8 0.0
19/11:30am 12.8 3.8 -2.6 34 6.5 W 35 46 19 25 1027.4 1028.9 0.0
19/11:00am 11.2 2.0 -4.5 33 6.2 W 35 46 19 25 1027.8 1029.4 0.0
19/10:30am 11.2 1.8 -2.6 38 5.8 WNW 37 46 20 25 1027.7 1029.3 0.0
19/10:00am 10.7 0.7 -4.5 34 6.0 WNW 39 48 21 26 1027.8 1029.4 0.0
19/09:30am 10.0 0.8 -4.4 36 5.7 W 35 44 19 24 1028.0 1029.6 0.0
19/09:00am 11.3 2.1 -4.8 32 6.4 W 35 43 19 23 1028.3 1029.9 0.0
19/08:30am 10.4 1.7 -4.8 34 6.0 WNW 32 41 17 22 1028.3 1029.9 0.0
19/08:00am 10.1 1.5 -3.9 37 5.6 WNW 32 37 17 20 1028.0 1029.6 0.0
19/07:30am 9.5 1.3 -4.1 38 5.4 W 30 37 16 20 1028.0 1029.6 0.0
19/07:00am 8.6 -0.3 -4.9 38 5.2 W 33 39 18 21 1027.7 1029.3 0.0
19/06:30am 8.0 -1.3 -5.1 39 5.0 W 35 39 19 21 1027.6 1029.1 0.0
19/06:00am 7.5 -1.4 -6.9 35 5.2 W 32 35 17 19 1027.5 1029.0 0.0
19/05:30am 7.6 -1.5 -7.6 33 5.4 W 33 41 18 22 1027.2 1028.8 0.0
19/05:00am 6.8 -2.3 -10.0 29 5.6 W 32 41 17 22 1027.2 1028.8 0.0
19/04:30am 7.4 -1.8 -10.3 27 5.9 W 32 37 17 20 1026.9 1028.4 0.0
19/04:00am 7.3 -0.9 -7.9 33 5.3 WNW 28 33 15 18 1027.0 1028.6 0.0
19/03:30am 7.5 -0.4 -8.5 31 5.6 W 26 32 14 17 1027.2 1028.8 0.0
19/03:00am 8.1 0.1 -2.2 48 4.2 W 30 35 16 19 1027.5 1029.0 0.0
19/02:30am 7.2 -0.1 0.2 61 3.0 W 28 33 15 18 1027.7 1029.3 0.0
19/02:00am 7.3 0.9 1.0 64 2.7 W 24 32 13 17 1027.7 1029.3 0.0
19/01:30am 7.3 1.0 1.6 67 2.5 W 24 28 13 15 1028.0 1029.6 0.0
19/01:00am 7.1 0.5 2.0 70 2.3 W 26 32 14 17 1028.3 1029.9 0.0
19/12:30am 7.2 1.0 2.3 71 2.2 W 24 30 13 16 1028.4 1030.0 0.0
19/12:00am 7.4 1.1 1.7 67 2.5 W 24 32 13 17 1028.6 1030.2 0.0
 
Date/Time
EDT
Temp
°C
App
Temp
°C
Dew
Point
Rel
Hum
%
Delta-T
°C
Wind Press
QNH
hPa
Press
MSL
hPa
Rain
since 9 am
mm
Dir
 
Spd
km/h
Gust
km/h
Spd
kts
Gust
kts
18/11:30pm 7.3 1.1 -0.2 59 3.2 W 22 24 12 13 1028.5 1030.1 0.0
18/11:00pm 7.0 1.3 -0.9 57 3.3 WSW 19 24 10 13 1028.5 1030.1 0.0

Other Formats:

Comma delimited format used in spreadsheet applications
http://www.bom.gov.au/fwo/IDN60801/IDN60801.95909.axf

JavaScript Object Notation format (JSON) in row-major order
http://www.bom.gov.au/fwo/IDN60801/IDN60801.95909.json